Hourly Data Report for October 09, 2016

All times are specified in Local Standard Time (LST). Add 1 hour to adjust for Daylight Saving Time where and when it is observed.

ARVIAT A
NUNAVUT

61°05'38.000" N
94°04'18.000" W
10.40 m
2300427
71174
YEK

Download Data

Hourly Data (October 2016)
Hourly Data Report for October 9, 2016
Temp Definition
°C
Dew Point Temp Definition
°C
Rel Hum Definition
%
Wind Dir Definition
10's deg

Wind Spd Definition
km/h
Visibility Definition
km
Stn Press Definition
kPa
Hmdx Definition


Wind Chill Definition


Weather Definition


TIME
00:00 Legend Double Dagger -0.9 -1.8 94 24 11 16.1 102.17   -5 LegendNANA
01:00 Legend Double Dagger -1.0 -1.6 96 29 8 16.1 102.17   -4 LegendNANA
02:00 Legend Double Dagger -0.6 -1.2 96 29 9 16.1 102.17   -4 LegendNANA
03:00 Legend Double Dagger -0.7 -1.3 96 30 13 16.1 102.16   -5 LegendNANA
04:00 Legend Double Dagger -1.2 -1.3 99 29 9 16.1 102.14   -4 LegendNANA
05:00 Legend Double Dagger -1.1 -1.1 100 29 11 16.1 102.18   -5 LegendNANA
06:00 Legend Double Dagger -0.9 -1.0 99 30 11 16.1 102.20   -5 LegendNANA
07:00 Legend Double Dagger -1.1 -1.5 97 30 9 16.1 102.21   -4 LegendNANA
08:00 Legend Double Dagger -1.1 -1.7 96 30 11 16.1 102.21   -5 LegendNANA
09:00 Legend Double Dagger -1.1 -1.7 96 30 11 16.1 102.20   -5 LegendNANA
10:00 Legend Double Dagger -0.6 -1.4 94 32 15 16.1 102.22   -5 LegendNANA
11:00 Legend Double Dagger -0.2 -1.3 92 34 13 16.1 102.21   -4 LegendNANA
12:00 Legend Double Dagger 0.1 -1.5 89 33 17 16.1 102.23     LegendNANA
13:00 Legend Double Dagger 0.7 -1.7 84 35 11 16.1 102.22     LegendNANA
14:00 Legend Double Dagger 1.1 -2.0 80 1 13 16.1 102.21     LegendNANA
15:00 Legend Double Dagger 1.2 -2.8 75 36 8 16.1 102.20     LegendNANA
16:00 Legend Double Dagger 1.2 -1.9 80 4 5 16.1 102.23     LegendNANA
17:00 Legend Double Dagger 1.1 -2.3 78   0 16.1 102.23     LegendNANA
18:00 Legend Double Dagger 0.6 -2.1 82 1 4 16.1 102.21     LegendNANA
19:00 Legend Double Dagger 0.4 -2.5 81 36 5 16.1 102.20     LegendNANA
20:00 Legend Double Dagger -0.3 -1.7 90 31 8 16.1 102.20   -3 LegendNANA
21:00 Legend Double Dagger -0.7 -1.6 94 33 5 16.1 102.22   -2 LegendNANA
22:00 Legend Double Dagger -0.6 -2.0 90 34 9 16.1 102.16   -4 LegendNANA
23:00 Legend Double Dagger -0.6 -1.7 92 35 8 16.1 102.13   -3 LegendNANA

Notes on Data Quality.

Legend

  • E = Estimated
  • M = Missing
  • NA = Not Available
  • ‡ = Partner data that is not subject to review by the National Climate Archives
Date modified: